Regional Weather Roundup
Issued by NWS Grand Forks, ND

Home | Current Version | Previous Version | Text Only | Print | Product List | Glossary Off
Versions: 1 2 3 4 5 6 7 8 9 10 11 12 13 14 15 16 17 18 19 20 21 22 23 24 25 26 27 28 29 30 31 32 33 34 35 36 37 38 39 40 41 42 43 44 45 46 47 48 49 50

000
ASUS43 KFGF 201131
RWRFGF
PRAIRIE TO PINES  WEATHER ROUNDUP
NATIONAL WEATHER SERVICE EASTERN NORTH DAKOTA/GRAND FORKS ND
500 AM CST MON NOV 20 2017

 **SATELLITE DATA USED TO AUGMENT SKY COVER AT AUTOMATED STATIONS**
 *****  WEATHER ACROSS EASTERN NORTH DAKOTA  *****

CITY           SKY/WX    TMP DP  RH WIND       PRES   REMARKS
GRAND FORKS    FAIR      28  24  85 S12       29.48F WCI  18
GRAND FRKS AFB FAIR      27  23  86 S9        29.47F WCI  18
GRAND FRKS NWS   N/A     28 N/A N/A S9          N/A  WCI  20
DEVILS LAKE    FAIR      31  25  78 SW10      29.43F WCI  22
FARGO          FAIR      30  22  72 S10       29.53F WCI  21
WAHPETON ARPT  NOT AVBL
$$

 ***** WEATHER ACROSS CENTRAL AND WESTERN NORTH DAKOTA  *****

CITY           SKY/WX    TMP DP  RH WIND       PRES   REMARKS
BISMARCK       FAIR      29  21  72 SE3       29.50F
MINOT          MOCLDY    41  22  46 SW16      29.38F
JAMESTOWN      FAIR      26  22  84 S6        29.47F WCI  19
MINOT AFB      CLOUDY    39  23  51 SW17G28   29.36F
GARRISON         N/A     31  24  75 CALM      29.43F
WILLISTON      FAIR      33  23  66 SW7       29.41F
DICKINSON      FAIR      37  19  48 W12       29.45F
HETTINGER      FAIR      34  18  52 W6        29.53F
$$

 *****  OTHER AIRPORT OBSERVATIONS IN OUR AREA  *****

CITY           SKY/WX    TMP DP  RH WIND       PRES   REMARKS
WALHALLA       FAIR      25  25 100 SE8       29.39F WCI  16
GRAFTON AIRPOR NOT AVBL
VALLEY CITY AR NOT AVBL
CANDO          FAIR      27  28 100 S7        29.40F WCI  19
CAVALIER APRT  FAIR      23  23 100 S7        29.42F WCI  15
GWINNER          N/A     28  23  80 SW9       29.52F WCI  20
SHEYENNE NWR     N/A     23  21  92 S3        29.95S
ROLLA          FAIR      27  23  86 SW16      29.35F WCI  14
 ***** THE ABOVE OBSERVATIONS ARE NON NWS ARE NOT QUALITY
       CONTROLLED AND MAY MIS-REPORT RAIN FOR SNOW...
$$

  *****  WEATHER ACROSS NORTHERN MINNESOTA  *****

CITY           SKY/WX    TMP DP  RH WIND       PRES   REMARKS
FLAG ISLAND    MOCLDY    21  18  86 SE7       29.51F WCI  13
WARROAD        FAIR      23  19  86 SE6       29.51F WCI  16
ROSEAU         FAIR      27  21  80 SE7       29.48F WCI  19
HALLOCK        FAIR      28  25  86 SE14      29.44F WCI  17
THF RVR FALLS  FAIR      26  23  88 SE9       29.51F WCI  17
BAUDETTE       FAIR      18  14  84 SE6       29.54F WCI  10
WASKISH        FAIR      25  21  86 SE5       29.54F WCI  19
CROOKSTON      FAIR      28  25  86 S14G20    29.50F WCI  17
STEPHEN NDAWN    N/A     28  25  86 SE13        N/A  WCI  18
GREENBUSH NDAW   N/A     27  23  86 SE10        N/A  WCI  17
$$
  *****  WEATHER ACROSS CENTRAL AND WEST MINNESOTA  *****

CITY           SKY/WX    TMP DP  RH WIND       PRES   REMARKS
FOSSTON        FAIR      28  25  86 SE7       29.52F WCI  21
BEMIDJI        FAIR      20  19  93 SE3       29.55F
PARK RAPIDS    FAIR      24  20  84 SE7       29.57F WCI  16
ELBOW LAKE     FAIR      29  24  81 SE9       29.59F WCI  20
WADENA         FAIR      21  19  93 SE3       29.59F
DETROIT LAKES  FAIR      27  23  86 S7        29.56F WCI  19
MOORHEAD       FAIR      28  21  74 S14       29.54F WCI  17
FERGUS FALLS   FAIR      28  23  80 SE8       29.60F WCI  20
MORRIS MN      FAIR      25  21  86 SE7       29.58F WCI  17
STAPLES        FAIR      19  19 100 SE3       29.60F
$$
  *****  WEATHER ELSEWHERE ACROSS MINNESOTA  *****

CITY           SKY/WX    TMP DP  RH WIND       PRES   REMARKS
DULUTH         FAIR      21  20  96 E3        29.65F
INTRNTL FALLS  CLOUDY    17  12  80 SE5       29.59F WCI  10
ELY            FAIR      21  18  86 S5        29.64S WCI  15
CLOQUET        FAIR      19  18  93 CALM      29.65S
WHEATON        FAIR      27  21  80 SE8       29.59F WCI  18
BRAINERD       FAIR      22  19  89 CALM      29.63F
HIBBING        FAIR      13  11  92 CALM      29.64F
ALEXANDRIA     FAIR      28  23  81 SE6       29.61F WCI  22
SAINT CLOUD    FAIR      24  21  88 SE6       29.65F WCI  17
MINNEAPOLIS    FAIR      30  26  85 SE5       29.70F
$$

  *****  WEATHER ACROSS SOUTH DAKOTA  *****

CITY           SKY/WX    TMP DP  RH WIND       PRES   REMARKS
SIOUX FALLS    FAIR      28  22  78 S5        29.64F WCI  23
BROOKINGS        N/A     28  23  81 SE5         N/A  WCI  23
WATERTOWN      FAIR      29  23  78 S9        29.58F WCI  20
HURON          FAIR      27  22  81 S9        29.59F WCI  18
SISSETON         N/A     28  22  78 S3        29.55F
ABERDEEN       FAIR      21  19  92 S7        29.57F WCI  12
MITCHELL       FAIR      30  24  78 S7        29.61F WCI  23
PIERRE         FAIR      29  21  72 W6        29.57F WCI  23
MOBRIDGE       FAIR      28  22  78 SE7       29.52F WCI  21
RAPID CITY     FAIR      32  16  51 S3        29.60F
$$

  *****  SOME WEATHER IN NEARBY STATES *****

CITY           SKY/WX    TMP DP  RH WIND       PRES   REMARKS
GLASGOW MT     FAIR      49  17  28 W18       29.39F
GREAT FALLS MT FAIR      46   9  22 SW20      29.50S
CHEYENNE WY    FAIR      46   0  14 W24G33    29.87F
SCOTTSBLUFF NE FAIR      42   8  24 W7        29.77F
OMAHA NE       FAIR      33  25  72 S10       29.81F WCI  25
DES MOINES IA  FAIR      37  28  70 S9        29.84F
DAVENPORT IA   FAIR      33  26  75 S9        29.94F
CHICAGO IL     FAIR      34  23  64 SW12      29.97S
EAU CLAIRE WI  FAIR      20  19  96 CALM      29.73F
LA CROSSE WI   FAIR      34  27  75 S6        29.80F
$$

  *****  SOME NATIONAL WEATHER *****

CITY           SKY/WX    TMP DP  RH WIND       PRES   REMARKS
LA GUARDIA NY  MOCLDY    39  25  57 W14       29.96R
RALEIGH NC     FAIR      28  26  92 CALM      30.19R
ATLANTA GA     FAIR      33  28  81 NW5       30.19R
NEW ORLEANS LA FAIR      51  38  60 NE12      30.20S
OKLAHOMA CITY  FAIR      36  27  69 S8        30.07F
ALBUQUERQUE NM FAIR      31   5  33 NW7       30.17S WCI  24
SALT LAKE CITY FAIR      35  31  85 CALM      30.07F
LOS ANGELES CA FAIR      52  45  77 E7        29.99S
BOISE ID       CLOUDY    47  27  45 SE13      29.93F
SEATTLE WA     CLOUDY    47  44  90 SE5       29.57F
$$

*** WEATHER ACROSS MANITOBA...SASKATCHEWAN AND ONTARIO ***
                ***ONTARIO***

CITY           SKY/WX    TMP DP  RH WIND       PRES   REMARKS
GERALDTON      PTCLDY     1   0  92 S2        29.71F
THUNDER BAY    PTCLDY     9   7  92 W3        29.76F
SIOUX LOOKOUT  CLOUDY    10   7  85 SE6       29.62F WCI   1
TORONTO        CLOUDY    32  21  64 W15G21    29.91R WCI  22
BIG TROUT LK   FLURRIES   3   1  92 W7        29.62F WCI  -9
PICKLE LAKE    PTCLDY    -4  -8  84 S6        29.62  WCI -16
DRYDEN         PTCLDY    14  12  92 SE7       29.58F WCI   4
KENORA         MOCLDY    19  16  86 SE9       29.53F WCI   9
$$
                *** MANITOBA***

CITY           SKY/WX    TMP DP  RH WIND       PRES   REMARKS
BRANDON        MOCLDY    18  14  86 E5        29.32F WCI  11
DAUPHIN        CLOUDY    18  14  86 CALM      29.30F
ISLAND LAKE    FLURRIES   3   0  85 VRB2      29.60
PILOT MOUND      N/A     28  23  80 SW9         N/A  WCI  20
THE PAS        LGT SNOW  10   7  85 E10G21    29.38F VSB 1   WCI  -3
THOMPSON       CLOUDY    -4  -9  77 E5        29.59F WCI -15
WINNIPEG       CLOUDY    23  19  86 SE16      29.41F WCI  10
LYNN LAKE      CLOUDY    -4  -6  92 E3        29.54R
CHURCHILL      FLURRIES  18  18 100 W9        29.57S WCI   6
GILLAM         FLURRIES   0  -6  78 W6        29.60S WCI -12
$$
                ***SASKATCHEWAN***

CITY           SKY/WX    TMP DP  RH WIND       PRES   REMARKS
ESTEVAN        PTCLDY    30  21  69 SW10      29.34F WCI  21
KINDERSLEY     CLOUDY    32  25  74 NW20G31   29.28R WCI  20
LLOYDMINSTER   CLOUDY    19  18  93 NW17G23   29.36S WCI   4
PRINCE ALBERT  CLOUDY    12   9  85 N6        29.28R WCI   3
REGINA         CLOUDY    34  25  69 SW18      29.25F WCI  23
YORKTON        CLOUDY    27  23  86 S10       29.19F WCI  17
N. BATTLEFORD  LGT SNOW  14  10  85 NW15G21   29.33R WCI  -1
LA RONGE       LGT SNOW  10   7  85 NE12      29.35F WCI  -4
SASKATOON      CLOUDY    12   9  85 NW8       29.25R WCI   1
SWIFT CURRENT  MOCLDY    37  25  60 W30G39    29.26F
$$
NOTE: THESE ARE AUTOMATED STATIONS WITH LIMITED QUALITY CONTROL
      "FAIR" INDICATES FEW OR NO CLOUDS BELOW 12,000 FEET WITH NO
      SIGNIFICANT WEATHER AND/OR OBSTRUCTIONS TO VISIBILITY.
      SKY/WX - SKY CONDITION AND SIGNIFICANT WEATHER.
      TMP - AIR TEMPERATURE.    DP   - DEWPOINT TEMPERATURE.
      RH  - RELATIVE HUMIDITY.  PRES - PRESSURE.
      HX  - HEAT INDEX.         WCI  - WIND CHILL INDEX.
$




USA.gov is the U.S. government's official web portal to all federal, state and local government web resources and services.